HLF9852 EBBR-ZWWW

Flight info

Callsign HLF9852
Flight time 6h 42m
Altitude 31000
Route SOPOK Y863 ROPUV L607 UBIDU L984 LOHRE N746 ESOBU N858 GRUDA/N0481F330 N858 BOKSU DCT LAFAT/K0891F330 DCT INKUZ DCT RAMBE L29 BENIM M997 RATIN L999 AGLAN M864 INKEB L94 NAMER T765 GEMKI L94 NOGRI T872 IMANA N993 GEDNO/K0883F350 N993 KABIZ M166 SARIN/K0880S1070 A368 OMKEN
Aircraft B77L/H-SDE1E2E3FGHIJ2J3J4J5M1RWXY/LB1D1

Departure

Time 2026-05-06 21:34
Airport Brussels Airport (EBBR)

Arrival

Time 2026-05-07 04:16
Airport Ürümqi Tianshan International Airport (ZWWW)
Time Latitude Longitude Altitude Speed Heading
2026-05-06 20:56 50.90278 4.45750 143 ft 0 kts 335°
2026-05-06 21:25 50.90272 4.45755 143 ft 0 kts 336°
2026-05-06 21:27 50.90271 4.45755 143 ft 0 kts 336°
2026-05-06 21:27 50.90252 4.45769 143 ft 4 kts 332°
2026-05-06 21:27 50.90229 4.45791 143 ft 4 kts 323°
2026-05-06 21:28 50.90209 4.45819 143 ft 4 kts 301°
2026-05-06 21:28 50.90203 4.45851 143 ft 2 kts 246°
2026-05-06 21:28 50.90204 4.45853 143 ft 1 kts 245°
2026-05-06 21:31 50.90190 4.45807 143 ft 10 kts 245°
2026-05-06 21:31 50.90159 4.45700 144 ft 11 kts 245°
2026-05-06 21:31 50.90139 4.45629 144 ft 11 kts 245°
2026-05-06 21:32 50.90097 4.45533 145 ft 11 kts 208°
2026-05-06 21:32 50.89962 4.45604 145 ft 11 kts 155°
2026-05-06 21:32 50.89928 4.45694 145 ft 9 kts 72°
2026-05-06 21:33 50.89986 4.45892 144 ft 41 kts 65°
2026-05-06 21:33 50.90211 4.46674 128 ft 114 kts 65°
2026-05-06 21:33 50.90637 4.48137 123 ft 175 kts 64°
2026-05-06 21:33 50.91179 4.50009 503 ft 189 kts 65°
2026-05-06 21:34 50.91708 4.51878 1292 ft 184 kts 65°
2026-05-06 21:34 50.92236 4.53746 1840 ft 193 kts 65°
2026-05-06 21:34 50.92815 4.55790 2039 ft 214 kts 65°
2026-05-06 21:34 50.93453 4.58061 2271 ft 235 kts 65°
2026-05-06 21:35 50.94130 4.60462 2832 ft 242 kts 65°
2026-05-06 21:35 50.94575 4.63078 3302 ft 255 kts 85°
2026-05-06 21:35 50.94673 4.65888 3885 ft 258 kts 83°
2026-05-06 21:35 50.94851 4.68720 4490 ft 265 kts 81°
2026-05-06 21:36 50.95053 4.71664 5162 ft 265 kts 82°
2026-05-06 21:36 50.95269 4.74554 5986 ft 265 kts 82°
2026-05-06 21:36 50.95304 4.77499 6447 ft 274 kts 103°
2026-05-06 21:36 50.94400 4.80171 6918 ft 282 kts 133°
2026-05-06 21:37 50.92964 4.82294 7482 ft 285 kts 138°
2026-05-06 21:37 50.91473 4.84379 8068 ft 286 kts 137°
2026-05-06 21:37 50.89980 4.86482 8670 ft 290 kts 139°
2026-05-06 21:37 50.88466 4.88590 9296 ft 291 kts 137°
2026-05-06 21:38 50.86974 4.90784 9884 ft 294 kts 136°
2026-05-06 21:38 50.85461 4.93017 10349 ft 303 kts 136°
2026-05-06 21:38 50.83865 4.95370 10498 ft 324 kts 137°
2026-05-06 21:38 50.82162 4.97848 10682 ft 344 kts 137°
2026-05-06 21:39 50.80329 5.00487 10796 ft 367 kts 138°
2026-05-06 21:39 50.78410 5.03229 11243 ft 377 kts 138°
2026-05-06 21:39 50.76422 5.06044 11710 ft 388 kts 138°
2026-05-06 21:39 50.74393 5.08886 12497 ft 391 kts 139°
2026-05-06 21:40 50.72344 5.11744 13233 ft 396 kts 139°
2026-05-06 21:40 50.70273 5.14632 13963 ft 399 kts 139°
2026-05-06 21:40 50.68224 5.17505 14663 ft 400 kts 138°
2026-05-06 21:40 50.66140 5.20437 15380 ft 403 kts 138°
2026-05-06 21:41 50.64041 5.23396 16025 ft 407 kts 138°
2026-05-06 21:41 50.61919 5.26385 16659 ft 411 kts 138°
2026-05-06 21:41 50.59778 5.29399 17298 ft 414 kts 138°
2026-05-06 21:41 50.57617 5.32436 17937 ft 418 kts 139°
2026-05-06 21:42 50.55439 5.35494 18529 ft 421 kts 139°
2026-05-06 21:42 50.53239 5.38577 19082 ft 424 kts 139°
2026-05-06 21:42 50.51030 5.41670 19658 ft 427 kts 139°
2026-05-06 21:42 50.48805 5.44781 20215 ft 429 kts 139°
2026-05-06 21:43 50.46570 5.47900 20761 ft 432 kts 139°
2026-05-06 21:43 50.44311 5.51051 21304 ft 435 kts 139°
2026-05-06 21:43 50.42044 5.54208 21842 ft 438 kts 139°
2026-05-06 21:43 50.39759 5.57386 22361 ft 441 kts 139°
2026-05-06 21:44 50.37450 5.60592 22892 ft 444 kts 139°
2026-05-06 21:44 50.35132 5.63809 23423 ft 447 kts 139°
2026-05-06 21:44 50.32828 5.67000 23868 ft 449 kts 139°
2026-05-06 21:44 50.30483 5.70244 24319 ft 451 kts 139°
2026-05-06 21:45 50.28146 5.73533 24738 ft 452 kts 136°
2026-05-06 21:45 50.26125 5.77337 25061 ft 459 kts 124°
2026-05-06 21:45 50.24606 5.81742 25437 ft 463 kts 114°
2026-05-06 21:45 50.23606 5.86524 25864 ft 465 kts 104°
2026-05-06 21:46 50.22847 5.91449 26283 ft 467 kts 104°
2026-05-06 21:46 50.22067 5.96383 26681 ft 470 kts 105°
2026-05-06 21:46 50.21254 6.01337 27067 ft 473 kts 105°
2026-05-06 21:46 50.20411 6.06316 27440 ft 476 kts 106°
2026-05-06 21:47 50.19556 6.11320 27822 ft 478 kts 105°
2026-05-06 21:47 50.18879 6.16413 28218 ft 480 kts 98°
2026-05-06 21:47 50.18579 6.21611 28605 ft 483 kts 93°
2026-05-06 21:47 50.18589 6.26858 28947 ft 486 kts 87°
2026-05-06 21:48 50.18916 6.32116 29270 ft 488 kts 84°
2026-05-06 21:48 50.19289 6.37389 29586 ft 490 kts 84°
2026-05-06 21:48 50.19654 6.42683 30008 ft 489 kts 85°
2026-05-06 21:48 50.19999 6.47951 30426 ft 487 kts 85°
2026-05-06 21:49 50.20328 6.53207 30805 ft 486 kts 85°
2026-05-06 21:49 50.20651 6.58496 30854 ft 491 kts 85°
2026-05-06 21:49 50.21367 6.68996 30874 ft 489 kts 84°
2026-05-06 21:50 50.22187 6.79477 30883 ft 485 kts 84°
2026-05-06 21:50 50.22985 6.89954 30888 ft 486 kts 84°
2026-05-06 21:51 50.23754 7.00427 30893 ft 485 kts 85°
2026-05-06 21:51 50.24509 7.10909 30883 ft 485 kts 85°
2026-05-06 21:52 50.25255 7.21379 30889 ft 484 kts 85°
2026-05-06 21:52 50.25993 7.31837 30878 ft 484 kts 85°
2026-05-06 21:53 50.26718 7.42289 30886 ft 483 kts 85°
2026-05-06 21:53 50.27432 7.52718 30873 ft 482 kts 85°
2026-05-06 21:54 50.28131 7.63062 30885 ft 481 kts 85°
2026-05-06 21:54 50.28825 7.73461 30880 ft 480 kts 85°
2026-05-06 21:55 50.29511 7.83847 30878 ft 480 kts 85°
2026-05-06 21:55 50.30185 7.94242 30876 ft 480 kts 86°
2026-05-06 21:56 50.30850 8.04635 30874 ft 480 kts 86°
2026-05-06 21:56 50.31505 8.15042 30873 ft 481 kts 86°
2026-05-06 21:57 50.32152 8.25459 30873 ft 481 kts 86°
2026-05-06 21:57 50.32791 8.35885 30873 ft 481 kts 86°
2026-05-06 21:58 50.33363 8.41007 30847 ft 480 kts 72°
2026-05-06 21:58 50.34786 8.45727 30872 ft 483 kts 62°
2026-05-06 21:58 50.38224 8.54874 30857 ft 492 kts 64°
2026-05-06 21:59 50.41168 8.64540 30861 ft 490 kts 68°
2026-05-06 21:59 50.44277 8.74067 30849 ft 491 kts 60°
2026-05-06 22:00 50.47892 8.83149 30856 ft 490 kts 60°
2026-05-06 22:00 50.51388 8.92334 30858 ft 489 kts 61°
2026-05-06 22:01 50.54824 9.01487 30851 ft 490 kts 62°
2026-05-06 22:01 50.58298 9.10743 30856 ft 492 kts 61°
2026-05-06 22:02 50.61781 9.20038 30857 ft 494 kts 62°
2026-05-06 22:02 50.65264 9.29375 30853 ft 495 kts 62°
2026-05-06 22:03 50.68745 9.38741 30840 ft 496 kts 62°
2026-05-06 22:03 50.72225 9.48134 30846 ft 496 kts 62°
2026-05-06 22:04 50.75702 9.57556 30855 ft 496 kts 62°
2026-05-06 22:04 50.79169 9.66984 30852 ft 496 kts 62°
2026-05-06 22:05 50.82605 9.76363 30853 ft 496 kts 62°
2026-05-06 22:05 50.86048 9.85797 30845 ft 495 kts 62°
2026-05-06 22:06 50.89487 9.95252 30828 ft 495 kts 64°
2026-05-06 22:06 50.92926 10.04746 30836 ft 498 kts 63°
2026-05-06 22:07 50.96379 10.14316 30853 ft 501 kts 63°
2026-05-06 22:07 50.99568 10.23181 30843 ft 503 kts 63°
2026-05-06 22:08 51.03039 10.32864 30849 ft 505 kts 63°
2026-05-06 22:08 51.06505 10.42573 30839 ft 505 kts 63°
2026-05-06 22:09 51.09966 10.52303 30824 ft 506 kts 65°
2026-05-06 22:09 51.13430 10.62087 30840 ft 509 kts 64°
2026-05-06 22:10 51.16895 10.71901 30843 ft 512 kts 64°
2026-05-06 22:10 51.20095 10.82046 30844 ft 511 kts 70°
2026-05-06 22:11 51.22912 10.92464 30836 ft 512 kts 70°
2026-05-06 22:11 51.25752 11.02895 30815 ft 513 kts 70°
2026-05-06 22:12 51.28619 11.13338 30834 ft 513 kts 70°
2026-05-06 22:12 51.31487 11.23820 30832 ft 515 kts 69°
2026-05-06 22:13 51.35024 11.33861 30829 ft 522 kts 58°
2026-05-06 22:13 51.39108 11.43379 30841 ft 522 kts 59°
2026-05-06 22:14 51.43115 11.53095 30836 ft 523 kts 59°
2026-05-06 22:14 51.47098 11.62803 30831 ft 523 kts 59°
2026-05-06 22:15 51.51101 11.72576 30846 ft 524 kts 59°
2026-05-06 22:15 51.55103 11.82372 30841 ft 525 kts 59°
2026-05-06 22:16 51.59101 11.92201 30841 ft 526 kts 59°
2026-05-06 22:16 51.63093 12.02051 30834 ft 526 kts 60°
2026-05-06 22:17 51.66573 12.12341 30860 ft 521 kts 66°
2026-05-06 22:17 51.69690 12.22833 30834 ft 522 kts 66°
2026-05-06 22:18 51.72860 12.33360 30841 ft 521 kts 66°
2026-05-06 22:18 51.76051 12.43875 30843 ft 521 kts 66°
2026-05-06 22:19 51.79226 12.54421 30844 ft 521 kts 66°
2026-05-06 22:19 51.81847 12.63192 30849 ft 521 kts 66°
2026-05-06 22:20 51.85508 12.75491 30823 ft 522 kts 66°
2026-05-06 22:20 51.88139 12.84359 30842 ft 521 kts 66°
2026-05-06 22:21 51.91247 12.94876 30847 ft 521 kts 66°
2026-05-06 22:21 51.94370 13.05484 30846 ft 520 kts 66°
2026-05-06 22:22 51.97482 13.16088 30838 ft 520 kts 66°
2026-05-06 22:22 52.00583 13.26700 30840 ft 520 kts 66°
2026-05-06 22:23 52.03671 13.37320 30838 ft 520 kts 66°
2026-05-06 22:23 52.06751 13.47961 30848 ft 520 kts 66°
2026-05-06 22:24 52.09824 13.58624 30856 ft 521 kts 66°
2026-05-06 22:24 52.12893 13.69312 30854 ft 521 kts 66°
2026-05-06 22:25 52.15943 13.79935 30857 ft 522 kts 66°
2026-05-06 22:25 52.19012 13.90647 30870 ft 522 kts 66°
2026-05-06 22:26 52.22071 14.01381 30846 ft 522 kts 67°
2026-05-06 22:26 52.25118 14.12126 30857 ft 522 kts 67°
2026-05-06 22:27 52.28134 14.22911 30852 ft 522 kts 67°
2026-05-06 22:27 52.31138 14.33716 30855 ft 522 kts 67°
2026-05-06 22:28 52.34138 14.44535 30864 ft 522 kts 67°
2026-05-06 22:28 52.37125 14.55361 30872 ft 522 kts 68°
2026-05-06 22:29 52.40106 14.66224 30858 ft 522 kts 68°
2026-05-06 22:29 52.43073 14.77088 30863 ft 522 kts 68°
2026-05-06 22:30 52.46011 14.87896 30864 ft 522 kts 68°
2026-05-06 22:30 52.48955 14.98774 30863 ft 522 kts 68°
2026-05-06 22:31 52.51890 15.09675 30864 ft 522 kts 68°
2026-05-06 22:31 52.54812 15.20572 30870 ft 521 kts 69°
2026-05-06 22:32 52.57722 15.31483 30870 ft 521 kts 69°
2026-05-06 22:32 52.60624 15.42416 30868 ft 522 kts 69°
2026-05-06 22:33 52.63519 15.53372 30857 ft 522 kts 69°
2026-05-06 22:33 52.66406 15.64353 30867 ft 523 kts 69°
2026-05-06 22:34 52.69285 15.75354 30853 ft 523 kts 69°
2026-05-06 22:34 52.72156 15.86373 30858 ft 523 kts 70°
2026-05-06 22:35 52.75013 15.97399 30861 ft 523 kts 70°
2026-05-06 22:35 52.77862 16.08450 30867 ft 523 kts 70°
2026-05-06 22:36 52.80704 16.19523 30860 ft 523 kts 70°
2026-05-06 22:36 52.83516 16.30538 30864 ft 523 kts 70°
2026-05-06 22:37 52.86335 16.41629 30872 ft 522 kts 70°
2026-05-06 22:37 52.89144 16.52741 30856 ft 523 kts 70°
2026-05-06 22:38 52.91938 16.63850 30862 ft 524 kts 70°
2026-05-06 22:38 52.94730 16.75007 30857 ft 524 kts 71°
2026-05-06 22:39 52.97516 16.86194 30861 ft 524 kts 71°
2026-05-06 22:39 53.00291 16.97391 30855 ft 525 kts 71°
2026-05-06 22:40 53.03057 17.08601 30865 ft 524 kts 71°
2026-05-06 22:40 53.05810 17.19828 30853 ft 525 kts 71°
2026-05-06 22:41 53.09924 17.36713 30858 ft 525 kts 71°
2026-05-06 22:42 53.12639 17.47927 30858 ft 525 kts 71°
2026-05-06 22:42 53.15360 17.59221 30856 ft 525 kts 71°
2026-05-06 22:43 53.18070 17.70527 30865 ft 525 kts 71°
2026-05-06 22:43 53.20769 17.81849 30835 ft 525 kts 71°
2026-05-06 22:44 53.23456 17.93180 30833 ft 525 kts 71°
2026-05-06 22:44 53.26135 18.04540 30836 ft 525 kts 71°
2026-05-06 22:45 53.28805 18.15912 30843 ft 525 kts 71°
2026-05-06 22:45 53.31461 18.27289 30815 ft 525 kts 71°
2026-05-06 22:46 53.34105 18.38680 30855 ft 526 kts 71°
2026-05-06 22:46 53.36727 18.50035 30847 ft 527 kts 71°
2026-05-06 22:47 53.39365 18.61523 30847 ft 528 kts 71°
2026-05-06 22:47 53.41995 18.73036 30843 ft 529 kts 71°
2026-05-06 22:48 53.44621 18.84581 30840 ft 529 kts 71°
2026-05-06 22:48 53.47230 18.96132 30820 ft 530 kts 71°
2026-05-06 22:49 53.49815 19.07638 30846 ft 530 kts 71°
2026-05-06 22:49 53.52408 19.19239 30828 ft 531 kts 71°
2026-05-06 22:50 53.54998 19.30894 30825 ft 531 kts 71°
2026-05-06 22:50 53.57573 19.42542 30825 ft 531 kts 71°
2026-05-06 22:51 53.60135 19.54204 30825 ft 531 kts 72°
2026-05-06 22:51 53.62685 19.65876 30830 ft 531 kts 71°
2026-05-06 22:52 53.65224 19.77551 30818 ft 531 kts 71°
2026-05-06 22:52 53.67752 19.89253 30816 ft 530 kts 71°
2026-05-06 22:53 53.70265 20.00953 30810 ft 530 kts 72°
2026-05-06 22:53 53.72765 20.12660 30812 ft 530 kts 72°
2026-05-06 22:54 53.75254 20.24380 30773 ft 530 kts 72°
2026-05-06 22:54 53.77714 20.36031 30804 ft 529 kts 72°
2026-05-06 22:55 53.80175 20.47748 30818 ft 529 kts 72°
2026-05-06 22:55 53.82625 20.59482 30808 ft 529 kts 72°
2026-05-06 22:56 53.85064 20.71242 30819 ft 529 kts 72°
2026-05-06 22:56 53.87492 20.83017 30803 ft 529 kts 72°
2026-05-06 22:57 53.89913 20.94828 30794 ft 530 kts 72°
2026-05-06 22:57 53.92324 21.06655 30817 ft 530 kts 72°
2026-05-06 22:58 53.94724 21.18496 30794 ft 531 kts 72°
2026-05-06 22:58 53.97114 21.30356 30797 ft 532 kts 73°
2026-05-06 22:59 53.99477 21.42163 30796 ft 532 kts 73°
2026-05-06 22:59 54.01853 21.54111 30776 ft 533 kts 73°
2026-05-06 23:00 54.04211 21.66034 30793 ft 531 kts 73°
2026-05-06 23:00 54.06554 21.77954 30794 ft 530 kts 73°
2026-05-06 23:01 54.08876 21.89841 30799 ft 529 kts 73°
2026-05-06 23:01 54.11184 22.01729 30795 ft 528 kts 73°
2026-05-06 23:02 54.13480 22.13625 30799 ft 528 kts 73°
2026-05-06 23:02 54.15764 22.25531 30772 ft 527 kts 73°
2026-05-06 23:03 54.18025 22.37406 30797 ft 526 kts 74°
2026-05-06 23:03 54.20277 22.49302 30806 ft 527 kts 74°
2026-05-06 23:04 54.22521 22.61232 30807 ft 528 kts 74°
2026-05-06 23:04 54.24757 22.73192 30811 ft 529 kts 74°
2026-05-06 23:05 54.26985 22.85185 30992 ft 536 kts 74°
2026-05-06 23:05 54.29231 22.97345 30957 ft 535 kts 74°
2026-05-06 23:05 54.30347 23.03414 31301 ft 534 kts 74°
2026-05-06 23:06 54.31468 23.09459 31791 ft 530 kts 73°
2026-05-06 23:06 54.32652 23.15420 32285 ft 527 kts 72°
2026-05-06 23:06 54.33875 23.21330 32670 ft 526 kts 72°
2026-05-06 23:06 54.35116 23.27256 32772 ft 531 kts 72°
2026-05-06 23:07 54.36361 23.33222 32804 ft 532 kts 72°
2026-05-06 23:07 54.38813 23.45147 32803 ft 526 kts 72°
2026-05-06 23:08 54.40801 23.54988 32816 ft 524 kts 72°
2026-05-06 23:08 54.43166 23.66807 32793 ft 523 kts 72°
2026-05-06 23:09 54.45519 23.78638 32813 ft 523 kts 72°
2026-05-06 23:09 54.47865 23.90489 32820 ft 524 kts 73°
2026-05-06 23:10 54.50206 24.02385 32818 ft 526 kts 73°
2026-05-06 23:10 54.52542 24.14327 32819 ft 527 kts 73°
2026-05-06 23:11 54.54870 24.26303 32810 ft 528 kts 73°
2026-05-06 23:11 54.57192 24.38320 32799 ft 528 kts 73°
2026-05-06 23:12 54.59499 24.50338 32805 ft 529 kts 73°
2026-05-06 23:12 54.61798 24.62391 32800 ft 529 kts 73°
2026-05-06 23:13 54.64085 24.74456 32805 ft 528 kts 73°
2026-05-06 23:13 54.66357 24.86517 32807 ft 528 kts 73°
2026-05-06 23:14 54.68600 24.98501 32831 ft 528 kts 73°
2026-05-06 23:14 54.70843 25.10565 32811 ft 527 kts 73°
2026-05-06 23:15 54.73071 25.22621 32840 ft 525 kts 73°
2026-05-06 23:15 54.75283 25.34671 32811 ft 525 kts 74°
2026-05-06 23:16 54.77474 25.46688 32814 ft 524 kts 74°
2026-05-06 23:16 54.79658 25.58738 32815 ft 524 kts 74°
2026-05-06 23:17 54.81828 25.70789 32817 ft 524 kts 74°
2026-05-06 23:17 54.83783 25.82325 32773 ft 523 kts 77°
2026-05-06 23:18 54.85477 25.94574 32831 ft 522 kts 79°
2026-05-06 23:18 54.87139 26.06863 32820 ft 522 kts 78°
2026-05-06 23:19 54.88831 26.19145 32821 ft 523 kts 78°
2026-05-06 23:19 54.90502 26.31362 32822 ft 523 kts 78°
2026-05-06 23:20 54.92168 26.43685 32819 ft 523 kts 78°
2026-05-06 23:20 54.93822 26.56007 32807 ft 523 kts 78°
2026-05-06 23:21 54.95462 26.68322 32810 ft 522 kts 78°
2026-05-06 23:21 54.97087 26.80624 32816 ft 521 kts 79°
2026-05-06 23:22 54.98698 26.92931 32816 ft 521 kts 79°
2026-05-06 23:22 55.00286 27.05169 32816 ft 520 kts 79°
2026-05-06 23:23 55.01638 27.15662 32818 ft 520 kts 79°
2026-05-06 23:23 55.03165 27.27618 32803 ft 519 kts 79°
2026-05-06 23:24 55.04724 27.39903 32808 ft 519 kts 79°
2026-05-06 23:24 55.06256 27.52206 32822 ft 519 kts 80°
2026-05-06 23:25 55.07753 27.64522 32818 ft 519 kts 80°
2026-05-06 23:25 55.09240 27.76853 32816 ft 519 kts 80°
2026-05-06 23:26 55.10719 27.89189 32807 ft 519 kts 80°
2026-05-06 23:26 55.12187 28.01542 32819 ft 519 kts 80°
2026-05-06 23:27 55.13524 28.12878 32822 ft 519 kts 80°
2026-05-06 23:27 55.14867 28.25272 32814 ft 518 kts 85°
2026-05-06 23:28 55.15625 28.37770 32827 ft 517 kts 87°
2026-05-06 23:28 55.16323 28.50301 32826 ft 518 kts 87°
2026-05-06 23:29 55.17040 28.62855 32805 ft 518 kts 86°
2026-05-06 23:29 55.17764 28.75402 32826 ft 518 kts 86°
2026-05-06 23:30 55.18481 28.87943 32826 ft 518 kts 86°
2026-05-06 23:30 55.19182 29.00493 32829 ft 518 kts 86°
2026-05-06 23:31 55.19868 29.13045 32835 ft 518 kts 87°
2026-05-06 23:31 55.20540 29.25592 32832 ft 518 kts 87°
2026-05-06 23:32 55.21196 29.38048 32823 ft 517 kts 87°
2026-05-06 23:32 55.21842 29.50572 32828 ft 516 kts 87°
2026-05-06 23:33 55.22473 29.63073 32835 ft 515 kts 87°
2026-05-06 23:33 55.23092 29.75564 32829 ft 514 kts 87°
2026-05-06 23:34 55.23696 29.88038 32828 ft 514 kts 87°
2026-05-06 23:34 55.24283 30.00429 32810 ft 513 kts 87°
2026-05-06 23:35 55.24861 30.12881 32837 ft 512 kts 87°
2026-05-06 23:35 55.25425 30.25309 32820 ft 511 kts 87°
2026-05-06 23:36 55.25976 30.37730 32824 ft 511 kts 88°
2026-05-06 23:36 55.26514 30.50150 32826 ft 511 kts 88°
2026-05-06 23:37 55.27030 30.62361 32822 ft 511 kts 88°
2026-05-06 23:37 55.27542 30.74707 32822 ft 510 kts 88°
2026-05-06 23:38 55.28284 30.86261 32810 ft 511 kts 80°
2026-05-06 23:38 55.30028 30.97267 32832 ft 512 kts 71°
2026-05-06 23:39 55.30663 31.00443 32796 ft 512 kts 71°
2026-05-06 23:39 55.32224 31.08275 32917 ft 508 kts 71°
2026-05-06 23:40 55.34200 31.18487 32838 ft 512 kts 72°
2026-05-06 23:40 55.36428 31.30253 32841 ft 513 kts 72°
2026-05-06 23:41 55.38593 31.41786 32836 ft 515 kts 72°
2026-05-06 23:41 55.40823 31.53780 32821 ft 515 kts 72°
2026-05-06 23:42 55.43023 31.65689 32825 ft 515 kts 72°
2026-05-06 23:42 55.45230 31.77700 32806 ft 515 kts 72°
2026-05-06 23:43 55.47421 31.89694 32817 ft 514 kts 72°
2026-05-06 23:43 55.49596 32.01685 32836 ft 513 kts 73°
2026-05-06 23:44 55.51720 32.13472 32816 ft 513 kts 73°
2026-05-06 23:44 55.53869 32.25478 32832 ft 512 kts 73°
2026-05-06 23:45 55.55974 32.37304 32837 ft 511 kts 73°
2026-05-06 23:45 55.57998 32.48758 32838 ft 511 kts 73°
2026-05-06 23:46 55.59663 32.58235 32827 ft 510 kts 73°
2026-05-06 23:46 55.61753 32.70201 32828 ft 509 kts 73°
2026-05-06 23:47 55.63741 32.81644 32847 ft 509 kts 73°
2026-05-06 23:47 55.65761 32.93357 32845 ft 509 kts 73°
2026-05-06 23:48 55.67323 33.02471 32853 ft 509 kts 73°
2026-05-06 23:48 55.69340 33.14300 32847 ft 510 kts 73°
2026-05-06 23:49 55.71124 33.24822 32852 ft 510 kts 73°
2026-05-06 23:49 55.73068 33.36395 32857 ft 509 kts 74°
2026-05-06 23:50 55.74747 33.46472 32858 ft 509 kts 74°
2026-05-06 23:50 55.77681 33.64211 32874 ft 508 kts 74°
2026-05-06 23:51 55.79429 33.74855 32867 ft 509 kts 74°
2026-05-06 23:51 55.81400 33.86930 32863 ft 509 kts 74°
2026-05-06 23:52 55.83364 33.99052 32870 ft 509 kts 75°
2026-05-06 23:52 55.85311 34.11157 32860 ft 509 kts 75°
2026-05-06 23:53 55.87236 34.23201 32864 ft 509 kts 75°
2026-05-06 23:53 55.88970 34.35415 32879 ft 508 kts 82°
2026-05-06 23:54 55.89539 34.47930 32883 ft 506 kts 90°
2026-05-06 23:54 55.89694 34.60494 32880 ft 508 kts 90°
2026-05-06 23:55 55.89889 34.73086 32882 ft 509 kts 90°
2026-05-06 23:55 55.90106 34.85697 32861 ft 509 kts 90°
2026-05-06 23:56 55.90278 34.96174 32881 ft 509 kts 90°
2026-05-06 23:56 55.90468 35.08773 32890 ft 508 kts 90°
2026-05-06 23:57 55.90649 35.21091 32886 ft 504 kts 91°
2026-05-06 23:57 55.90822 35.33562 32906 ft 507 kts 91°
2026-05-06 23:58 55.90983 35.46259 32909 ft 514 kts 91°
2026-05-06 23:58 55.91135 35.58982 32901 ft 513 kts 91°
2026-05-06 23:59 55.91273 35.71664 32906 ft 511 kts 91°
2026-05-06 23:59 55.91404 35.84300 32904 ft 509 kts 90°
2026-05-07 00:00 55.91881 35.96880 32909 ft 508 kts 87°
2026-05-07 00:00 55.92475 36.09433 32931 ft 508 kts 87°
2026-05-07 00:01 55.93045 36.22011 32917 ft 509 kts 88°
2026-05-07 00:01 55.93576 36.34525 32912 ft 510 kts 88°
2026-05-07 00:02 55.94093 36.47143 32930 ft 510 kts 88°
2026-05-07 00:02 55.94598 36.59791 32929 ft 511 kts 88°
2026-05-07 00:03 55.95093 36.72456 32929 ft 512 kts 88°
2026-05-07 00:03 55.95574 36.85124 32931 ft 512 kts 88°
2026-05-07 00:04 55.96044 36.97816 32936 ft 512 kts 88°
2026-05-07 00:04 55.96499 37.10484 32934 ft 510 kts 88°
2026-05-07 00:05 55.96942 37.23107 32933 ft 508 kts 88°
2026-05-07 00:05 55.97359 37.35597 32933 ft 507 kts 89°
2026-05-07 00:06 55.97726 37.48143 32939 ft 505 kts 89°
2026-05-07 00:06 55.98077 37.60658 32941 ft 505 kts 89°
2026-05-07 00:07 55.98425 37.73197 32945 ft 505 kts 89°
2026-05-07 00:07 55.98772 37.85727 32950 ft 505 kts 89°
2026-05-07 00:08 55.99128 37.98254 32948 ft 505 kts 89°
2026-05-07 00:08 55.99473 38.10770 32950 ft 505 kts 89°
2026-05-07 00:09 55.99802 38.23290 32953 ft 504 kts 89°
2026-05-07 00:09 56.00116 38.35819 32954 ft 504 kts 89°
2026-05-07 00:10 56.00418 38.48336 32959 ft 504 kts 89°
2026-05-07 00:10 56.00706 38.60779 32961 ft 503 kts 89°
2026-05-07 00:11 56.00982 38.73271 32957 ft 503 kts 89°
2026-05-07 00:11 56.01245 38.85757 32958 ft 503 kts 89°
2026-05-07 00:12 56.01495 38.98250 32962 ft 503 kts 89°
2026-05-07 00:12 56.01734 39.10746 32961 ft 503 kts 90°
2026-05-07 00:13 56.01959 39.23249 32966 ft 503 kts 90°
2026-05-07 00:13 56.02172 39.35755 32964 ft 502 kts 89°
2026-05-07 00:14 56.02373 39.48217 32960 ft 501 kts 90°
2026-05-07 00:14 56.02562 39.60654 32962 ft 500 kts 90°
2026-05-07 00:15 56.02776 39.72986 32968 ft 500 kts 89°
2026-05-07 00:15 56.03011 39.85436 32972 ft 500 kts 89°
2026-05-07 00:16 56.03184 39.97886 32974 ft 501 kts 90°
2026-05-07 00:16 56.03340 40.10331 32970 ft 500 kts 90°
2026-05-07 00:17 56.03491 40.22771 32977 ft 500 kts 90°
2026-05-07 00:17 56.03632 40.35195 32986 ft 499 kts 90°
2026-05-07 00:18 56.03760 40.47539 32975 ft 500 kts 90°
2026-05-07 00:18 56.03876 40.59996 32989 ft 503 kts 90°
2026-05-07 00:19 56.03982 40.72609 32991 ft 511 kts 90°
2026-05-07 00:19 56.04071 40.85379 32980 ft 514 kts 90°
2026-05-07 00:20 56.04143 40.98071 32972 ft 507 kts 90°
2026-05-07 00:20 56.04203 41.10677 32978 ft 506 kts 90°
2026-05-07 00:21 56.04251 41.23263 32988 ft 506 kts 90°
2026-05-07 00:21 56.04286 41.35865 32981 ft 507 kts 90°
2026-05-07 00:22 56.04309 41.48433 32980 ft 508 kts 90°
2026-05-07 00:22 56.04318 41.61076 32985 ft 508 kts 90°
2026-05-07 00:23 56.04315 41.73725 32977 ft 508 kts 90°
2026-05-07 00:23 56.04299 41.86355 32977 ft 507 kts 90°
2026-05-07 00:24 56.04270 41.98970 32980 ft 507 kts 90°
2026-05-07 00:24 56.04229 42.11576 32982 ft 507 kts 90°
2026-05-07 00:25 56.04174 42.24200 32981 ft 507 kts 91°
2026-05-07 00:25 56.04107 42.36731 32979 ft 507 kts 90°
2026-05-07 00:26 56.04029 42.49345 32982 ft 506 kts 90°
2026-05-07 00:26 56.03921 42.61928 32979 ft 506 kts 91°
2026-05-07 00:27 56.03766 42.74498 32981 ft 505 kts 91°
2026-05-07 00:27 56.03601 42.87051 32981 ft 505 kts 91°
2026-05-07 00:28 56.03429 42.99596 32982 ft 505 kts 91°
2026-05-07 00:28 56.03246 43.12139 32981 ft 505 kts 91°
2026-05-07 00:29 56.03052 43.24684 32978 ft 505 kts 91°
2026-05-07 00:30 56.03910 43.49676 32974 ft 505 kts 82°
2026-05-07 00:31 56.05661 43.74695 32980 ft 506 kts 83°
2026-05-07 00:31 56.06478 43.87218 32969 ft 507 kts 83°
2026-05-07 00:32 56.07274 43.99660 32974 ft 506 kts 83°
2026-05-07 00:32 56.08066 44.12189 32970 ft 506 kts 83°
2026-05-07 00:33 56.08845 44.24696 32975 ft 505 kts 83°
2026-05-07 00:33 56.09609 44.37186 32971 ft 504 kts 83°
2026-05-07 00:34 56.10361 44.49685 32974 ft 504 kts 83°
2026-05-07 00:34 56.11101 44.62193 32977 ft 505 kts 84°
2026-05-07 00:35 56.11218 44.74769 32971 ft 505 kts 92°
2026-05-07 00:35 56.10887 44.87347 32974 ft 506 kts 92°
2026-05-07 00:36 56.10619 44.99960 32967 ft 506 kts 92°
2026-05-07 00:36 56.10343 45.12465 32967 ft 506 kts 92°
2026-05-07 00:37 56.10036 45.25060 32967 ft 506 kts 92°
2026-05-07 00:37 56.09721 45.37640 32961 ft 505 kts 92°
2026-05-07 00:38 56.09396 45.50220 32962 ft 505 kts 92°
2026-05-07 00:38 56.09058 45.62778 32963 ft 504 kts 92°
2026-05-07 00:39 56.08709 45.75318 32958 ft 503 kts 92°
2026-05-07 00:39 56.08347 45.87824 32960 ft 502 kts 92°
2026-05-07 00:40 56.07973 46.00303 32959 ft 502 kts 92°
2026-05-07 00:40 56.07588 46.12773 32957 ft 502 kts 92°
2026-05-07 00:41 56.07192 46.25171 32957 ft 502 kts 93°
2026-05-07 00:41 56.06780 46.37662 32956 ft 503 kts 92°
2026-05-07 00:42 56.06359 46.50156 32955 ft 502 kts 92°
2026-05-07 00:42 56.06352 46.62639 32959 ft 501 kts 88°
2026-05-07 00:43 56.06515 46.75097 32952 ft 501 kts 88°
2026-05-07 00:43 56.06651 46.87554 32958 ft 500 kts 88°
2026-05-07 00:44 56.06755 47.00026 32943 ft 501 kts 88°
2026-05-07 00:44 56.06826 47.10392 32944 ft 501 kts 88°
2026-05-07 00:45 56.06901 47.22859 32943 ft 501 kts 88°
2026-05-07 00:45 56.06965 47.35335 32938 ft 501 kts 88°
2026-05-07 00:46 56.07017 47.47805 32940 ft 500 kts 88°
2026-05-07 00:46 56.07055 47.60250 32941 ft 500 kts 89°
2026-05-07 00:47 56.07082 47.72681 32942 ft 500 kts 89°
2026-05-07 00:47 56.07098 47.85066 32940 ft 500 kts 89°
2026-05-07 00:48 56.07100 47.97525 32942 ft 501 kts 89°
2026-05-07 00:48 56.07088 48.10001 32944 ft 500 kts 89°
2026-05-07 00:49 56.07065 48.22465 32932 ft 500 kts 89°
2026-05-07 00:49 56.07031 48.34909 32930 ft 499 kts 89°
2026-05-07 00:50 56.06984 48.47344 32928 ft 499 kts 89°
2026-05-07 00:50 56.06925 48.59780 32929 ft 500 kts 89°
2026-05-07 00:51 56.06853 48.72229 32924 ft 500 kts 89°
2026-05-07 00:51 56.06769 48.84603 32924 ft 501 kts 89°
2026-05-07 00:52 56.06672 48.97080 32925 ft 500 kts 89°
2026-05-07 00:52 56.06562 49.09525 32914 ft 500 kts 89°
2026-05-07 00:53 56.06441 49.21952 32912 ft 499 kts 90°
2026-05-07 00:53 56.06308 49.34368 32913 ft 499 kts 90°
2026-05-07 00:54 56.06160 49.46782 32911 ft 499 kts 90°
2026-05-07 00:54 56.06002 49.59196 32909 ft 499 kts 90°
2026-05-07 00:55 56.05833 49.71535 32898 ft 499 kts 90°
2026-05-07 00:55 56.05651 49.83954 32909 ft 499 kts 91°
2026-05-07 00:56 56.05462 49.96375 32906 ft 499 kts 91°
2026-05-07 00:56 56.05263 50.08814 32901 ft 500 kts 91°
2026-05-07 00:57 56.05052 50.21252 32905 ft 500 kts 91°
2026-05-07 00:57 56.04829 50.33691 32900 ft 501 kts 91°
2026-05-07 00:58 56.04592 50.46136 32895 ft 501 kts 91°
2026-05-07 00:58 56.04344 50.58583 32888 ft 501 kts 92°
2026-05-07 00:59 56.03948 50.77300 32897 ft 502 kts 92°
2026-05-07 01:00 56.03720 50.89724 32886 ft 503 kts 90°
2026-05-07 01:00 56.03791 51.02262 32892 ft 504 kts 88°
2026-05-07 01:01 56.03900 51.14804 32892 ft 505 kts 89°
2026-05-07 01:01 56.03946 51.27367 32885 ft 505 kts 89°
2026-05-07 01:02 56.03955 51.39942 32885 ft 505 kts 90°
2026-05-07 01:02 56.03951 51.52508 32884 ft 506 kts 89°
2026-05-07 01:03 56.03938 51.65079 32883 ft 505 kts 90°
2026-05-07 01:03 56.03915 51.77654 32881 ft 505 kts 90°
2026-05-07 01:04 56.04102 51.90119 32875 ft 504 kts 86°
2026-05-07 01:04 56.04571 52.02640 32886 ft 504 kts 85°
2026-05-07 01:05 56.05028 52.15147 32886 ft 504 kts 86°
2026-05-07 01:05 56.05448 52.27689 32878 ft 505 kts 86°
2026-05-07 01:06 56.05846 52.40232 32874 ft 505 kts 86°
2026-05-07 01:06 56.06235 52.52777 32869 ft 505 kts 86°
2026-05-07 01:07 56.06607 52.65249 32871 ft 506 kts 86°
2026-05-07 01:07 56.06947 52.77824 32873 ft 506 kts 87°
2026-05-07 01:08 56.07269 52.90409 32862 ft 506 kts 87°
2026-05-07 01:08 56.07583 53.03008 32869 ft 506 kts 87°
2026-05-07 01:09 56.07886 53.15609 32867 ft 507 kts 87°
2026-05-07 01:09 56.08176 53.28219 32860 ft 507 kts 87°
2026-05-07 01:10 56.08454 53.40836 32864 ft 507 kts 87°
2026-05-07 01:10 56.08721 53.53436 32864 ft 506 kts 87°
2026-05-07 01:11 56.08964 53.66032 32859 ft 506 kts 88°
2026-05-07 01:11 56.09178 53.78619 32860 ft 505 kts 88°
2026-05-07 01:12 56.09380 53.91102 32860 ft 505 kts 88°
2026-05-07 01:12 56.09573 54.03672 32857 ft 505 kts 88°
2026-05-07 01:13 56.09756 54.16248 32857 ft 504 kts 88°
2026-05-07 01:13 56.09924 54.28815 32854 ft 505 kts 89°
2026-05-07 01:14 56.09412 54.41361 32852 ft 506 kts 101°
2026-05-07 01:14 56.08013 54.53711 32858 ft 506 kts 102°
2026-05-07 01:15 56.06612 54.66049 32856 ft 506 kts 101°
2026-05-07 01:15 56.05240 54.78411 32857 ft 506 kts 101°
2026-05-07 01:16 56.03873 54.90759 32858 ft 506 kts 101°
2026-05-07 01:16 56.02493 55.03082 32854 ft 506 kts 101°
2026-05-07 01:17 56.01099 55.15401 32852 ft 506 kts 102°
2026-05-07 01:17 55.99691 55.27712 32858 ft 505 kts 102°
2026-05-07 01:18 55.98285 55.39913 32855 ft 505 kts 102°
2026-05-07 01:18 55.96855 55.52200 32855 ft 505 kts 102°
2026-05-07 01:19 55.95409 55.64445 32854 ft 504 kts 102°
2026-05-07 01:19 55.93953 55.76678 32856 ft 504 kts 102°
2026-05-07 01:20 55.92484 55.88925 32852 ft 504 kts 102°
2026-05-07 01:20 55.91004 56.01154 32862 ft 504 kts 102°
2026-05-07 01:21 55.89514 56.13364 32861 ft 504 kts 102°
2026-05-07 01:21 55.88022 56.25472 32866 ft 504 kts 103°
2026-05-07 01:22 55.86509 56.37655 32866 ft 504 kts 103°
2026-05-07 01:22 55.84984 56.49824 32873 ft 504 kts 103°
2026-05-07 01:23 55.83447 56.61984 32869 ft 504 kts 103°
2026-05-07 01:23 55.81899 56.74151 32874 ft 504 kts 103°
2026-05-07 01:24 55.80340 56.86286 32886 ft 504 kts 103°
2026-05-07 01:24 55.78772 56.98422 32887 ft 503 kts 103°
2026-05-07 01:25 55.77204 57.10469 32892 ft 503 kts 103°
2026-05-07 01:25 55.75614 57.22587 32892 ft 503 kts 103°
2026-05-07 01:26 55.74012 57.34692 32892 ft 503 kts 103°
2026-05-07 01:26 55.72400 57.46776 32902 ft 503 kts 104°
2026-05-07 01:27 55.70778 57.58832 32900 ft 503 kts 104°
2026-05-07 01:27 55.69141 57.70907 32950 ft 505 kts 104°
2026-05-07 01:27 55.68316 57.76958 33224 ft 505 kts 104°
2026-05-07 01:28 55.67491 57.82997 33629 ft 502 kts 104°
2026-05-07 01:28 55.66666 57.89002 34017 ft 500 kts 104°
2026-05-07 01:28 55.65841 57.94967 34304 ft 499 kts 104°
2026-05-07 01:28 55.65021 58.00867 34513 ft 499 kts 104°
2026-05-07 01:29 55.64187 58.06844 34700 ft 500 kts 104°
2026-05-07 01:29 55.63350 58.12820 34842 ft 502 kts 104°
2026-05-07 01:29 55.62354 58.18727 34901 ft 500 kts 114°
2026-05-07 01:30 55.59075 58.29522 34914 ft 498 kts 123°
2026-05-07 01:30 55.55448 58.39924 34914 ft 496 kts 122°
2026-05-07 01:31 55.52020 58.50492 34912 ft 496 kts 120°
2026-05-07 01:31 55.48725 58.61174 34920 ft 495 kts 119°
2026-05-07 01:32 55.45456 58.71838 34921 ft 495 kts 120°
2026-05-07 01:32 55.42165 58.82479 34925 ft 494 kts 120°
2026-05-07 01:33 55.38857 58.93093 34927 ft 494 kts 120°
2026-05-07 01:33 55.36096 59.01910 34935 ft 495 kts 120°
2026-05-07 01:34 55.32768 59.12494 34932 ft 495 kts 120°
2026-05-07 01:34 55.29428 59.23077 34935 ft 496 kts 120°
2026-05-07 01:35 55.26071 59.33665 34936 ft 496 kts 120°
2026-05-07 01:35 55.22158 59.45952 34931 ft 496 kts 120°
2026-05-07 01:36 55.19356 59.54715 34936 ft 497 kts 120°
2026-05-07 01:36 55.15931 59.65210 34934 ft 497 kts 121°
2026-05-07 01:37 55.12446 59.75652 34934 ft 497 kts 121°
2026-05-07 01:37 55.08963 59.86093 34932 ft 497 kts 121°
2026-05-07 01:38 55.05481 59.96511 34930 ft 496 kts 121°
2026-05-07 01:38 55.01989 60.06895 34929 ft 496 kts 121°
2026-05-07 01:39 54.98492 60.17252 34927 ft 495 kts 122°
2026-05-07 01:39 54.95014 60.27514 34933 ft 495 kts 122°
2026-05-07 01:40 54.91507 60.37821 34931 ft 495 kts 122°
2026-05-07 01:40 54.87993 60.48108 34923 ft 495 kts 122°
2026-05-07 01:41 54.84470 60.58376 34912 ft 495 kts 122°
2026-05-07 01:41 54.80941 60.68627 34923 ft 495 kts 122°
2026-05-07 01:42 54.77391 60.78883 34925 ft 496 kts 122°
2026-05-07 01:42 54.73827 60.89133 34920 ft 497 kts 122°
2026-05-07 01:43 54.70249 60.99393 34921 ft 498 kts 123°
2026-05-07 01:43 54.66658 61.09639 34907 ft 499 kts 123°
2026-05-07 01:44 54.63048 61.19885 34925 ft 499 kts 123°
2026-05-07 01:44 54.59430 61.30118 34922 ft 500 kts 123°
2026-05-07 01:45 54.55802 61.40344 34920 ft 500 kts 123°
2026-05-07 01:45 54.52166 61.50550 34922 ft 500 kts 123°
2026-05-07 01:46 54.48517 61.60750 34917 ft 500 kts 123°
2026-05-07 01:46 54.44888 61.70854 34921 ft 500 kts 123°
2026-05-07 01:47 54.41229 61.81002 34917 ft 500 kts 123°
2026-05-07 01:47 54.37563 61.91131 34915 ft 500 kts 123°
2026-05-07 01:48 54.33886 62.01232 34899 ft 499 kts 124°
2026-05-07 01:48 54.30200 62.11316 34913 ft 500 kts 124°
2026-05-07 01:49 54.26499 62.21409 34917 ft 501 kts 124°
2026-05-07 01:49 54.22787 62.31490 34912 ft 501 kts 124°
2026-05-07 01:50 54.19062 62.41570 34914 ft 502 kts 124°
2026-05-07 01:50 54.15321 62.51652 34908 ft 503 kts 125°
2026-05-07 01:51 54.11575 62.61713 34921 ft 504 kts 126°
2026-05-07 01:51 54.07971 62.72031 34907 ft 508 kts 119°
2026-05-07 01:52 54.04845 62.82833 34907 ft 509 kts 119°
2026-05-07 01:52 54.01724 62.93652 34907 ft 510 kts 119°
2026-05-07 01:53 53.98566 63.04453 34910 ft 510 kts 120°
2026-05-07 01:53 53.95377 63.15243 34914 ft 511 kts 120°
2026-05-07 01:54 53.92168 63.26035 34913 ft 512 kts 120°
2026-05-07 01:54 53.88969 63.36751 34917 ft 513 kts 120°
2026-05-07 01:55 53.85741 63.47524 34881 ft 513 kts 121°
2026-05-07 01:55 53.82506 63.58272 34908 ft 512 kts 121°
2026-05-07 01:56 53.79260 63.69003 34919 ft 512 kts 121°
2026-05-07 01:56 53.76006 63.79715 34918 ft 512 kts 121°
2026-05-07 01:57 53.72741 63.90415 34919 ft 512 kts 122°
2026-05-07 01:57 53.69466 64.01099 34918 ft 512 kts 122°
2026-05-07 01:58 53.66181 64.11768 34923 ft 512 kts 122°
2026-05-07 01:58 53.62891 64.22410 34923 ft 512 kts 122°
2026-05-07 01:59 53.59590 64.33037 34925 ft 512 kts 122°
2026-05-07 01:59 53.56283 64.43637 34926 ft 511 kts 122°
2026-05-07 02:00 53.52986 64.54158 34919 ft 511 kts 122°
2026-05-07 02:00 53.49664 64.64715 34933 ft 510 kts 122°
2026-05-07 02:01 53.46336 64.75241 34935 ft 510 kts 123°
2026-05-07 02:01 53.42996 64.85759 34930 ft 511 kts 123°
2026-05-07 02:02 53.39650 64.96254 34935 ft 511 kts 123°
2026-05-07 02:02 53.36291 65.06744 34928 ft 510 kts 123°
2026-05-07 02:03 53.32932 65.17190 34937 ft 510 kts 123°
2026-05-07 02:03 53.29564 65.27620 34943 ft 509 kts 123°
2026-05-07 02:04 53.26188 65.38024 34941 ft 509 kts 124°
2026-05-07 02:04 53.22828 65.48338 34943 ft 508 kts 124°
2026-05-07 02:05 53.19447 65.58674 34944 ft 507 kts 124°
2026-05-07 02:05 53.16057 65.68996 34953 ft 506 kts 124°
2026-05-07 02:06 53.12667 65.79271 34958 ft 506 kts 124°
2026-05-07 02:06 53.09266 65.89534 34958 ft 506 kts 124°
2026-05-07 02:07 53.05857 65.99781 34956 ft 505 kts 124°
2026-05-07 02:07 53.00736 66.15095 34968 ft 506 kts 124°
2026-05-07 02:08 52.97330 66.25229 34970 ft 506 kts 124°
2026-05-07 02:08 52.93884 66.35439 34972 ft 507 kts 124°
2026-05-07 02:09 52.90428 66.45636 34972 ft 507 kts 124°
2026-05-07 02:09 52.86965 66.55813 34970 ft 507 kts 124°
2026-05-07 02:10 52.83494 66.65973 34978 ft 507 kts 124°
2026-05-07 02:10 52.80012 66.76119 34978 ft 508 kts 124°
2026-05-07 02:11 52.76519 66.86259 34987 ft 508 kts 124°
2026-05-07 02:11 52.73017 66.96385 34961 ft 508 kts 124°
2026-05-07 02:12 52.69507 67.06493 34982 ft 507 kts 124°
2026-05-07 02:12 52.65993 67.16573 34989 ft 507 kts 124°
2026-05-07 02:13 52.62476 67.26625 35004 ft 507 kts 124°
2026-05-07 02:13 52.59133 67.36868 34997 ft 509 kts 120°
2026-05-07 02:14 52.56084 67.47381 34994 ft 509 kts 119°
2026-05-07 02:14 52.53039 67.57883 35012 ft 509 kts 120°
2026-05-07 02:15 52.49985 67.68300 34997 ft 509 kts 120°
2026-05-07 02:15 52.46891 67.78755 35017 ft 509 kts 120°
2026-05-07 02:16 52.43783 67.89207 35023 ft 510 kts 120°
2026-05-07 02:16 52.40670 67.99632 35014 ft 509 kts 120°
2026-05-07 02:17 52.37549 68.10043 35023 ft 509 kts 120°
2026-05-07 02:17 52.34416 68.20448 35009 ft 509 kts 120°
2026-05-07 02:18 52.31275 68.30836 35027 ft 509 kts 120°
2026-05-07 02:18 52.28659 68.39449 35032 ft 509 kts 120°
2026-05-07 02:19 52.25503 68.49804 35009 ft 509 kts 120°
2026-05-07 02:19 52.22337 68.60148 35028 ft 509 kts 120°
2026-05-07 02:20 52.19165 68.70466 35034 ft 509 kts 120°
2026-05-07 02:20 52.15976 68.80796 35036 ft 509 kts 120°
2026-05-07 02:21 52.12781 68.91100 35035 ft 509 kts 120°
2026-05-07 02:21 52.09595 69.01332 35038 ft 510 kts 120°
2026-05-07 02:22 52.06381 69.11612 35042 ft 510 kts 120°
2026-05-07 02:22 52.03154 69.21890 35046 ft 511 kts 121°
2026-05-07 02:23 51.99920 69.32147 35043 ft 511 kts 121°
2026-05-07 02:23 51.96671 69.42406 35043 ft 511 kts 121°
2026-05-07 02:24 51.93416 69.52645 35038 ft 511 kts 121°
2026-05-07 02:24 51.90154 69.62863 35045 ft 511 kts 121°
2026-05-07 02:25 51.86884 69.73061 35047 ft 511 kts 121°
2026-05-07 02:25 51.83601 69.83255 35045 ft 510 kts 121°
2026-05-07 02:26 51.80314 69.93424 35044 ft 510 kts 121°
2026-05-07 02:26 51.77018 70.03577 35025 ft 510 kts 121°
2026-05-07 02:27 51.73719 70.13699 35040 ft 509 kts 121°
2026-05-07 02:27 51.70413 70.23800 35057 ft 509 kts 121°
2026-05-07 02:28 51.67106 70.33857 35041 ft 511 kts 121°
2026-05-07 02:28 51.63772 70.43962 35046 ft 511 kts 121°
2026-05-07 02:29 51.60425 70.54066 35024 ft 512 kts 121°
2026-05-07 02:29 51.57073 70.64142 35039 ft 510 kts 121°
2026-05-07 02:30 51.53718 70.74187 35051 ft 510 kts 121°
2026-05-07 02:30 51.50357 70.84210 35052 ft 509 kts 121°
2026-05-07 02:31 51.46992 70.94202 35057 ft 509 kts 121°
2026-05-07 02:31 51.43615 71.04191 35031 ft 510 kts 121°
2026-05-07 02:32 51.40219 71.14196 35049 ft 511 kts 121°
2026-05-07 02:32 51.36810 71.24200 35039 ft 512 kts 121°
2026-05-07 02:33 51.33388 71.34204 35052 ft 513 kts 121°
2026-05-07 02:33 51.29973 71.44145 35054 ft 514 kts 121°
2026-05-07 02:34 51.26522 71.54153 35037 ft 513 kts 121°
2026-05-07 02:34 51.23072 71.64118 35049 ft 513 kts 121°
2026-05-07 02:35 51.19615 71.74065 35048 ft 512 kts 122°
2026-05-07 02:35 51.16151 71.83989 35045 ft 512 kts 122°
2026-05-07 02:36 51.12681 71.93895 35056 ft 512 kts 122°
2026-05-07 02:36 51.09202 72.03788 35058 ft 512 kts 122°
2026-05-07 02:37 51.05716 72.13660 35069 ft 512 kts 122°
2026-05-07 02:37 51.02220 72.23523 35068 ft 512 kts 122°
2026-05-07 02:38 50.98715 72.33372 35069 ft 512 kts 122°
2026-05-07 02:38 50.95227 72.43138 35052 ft 512 kts 122°
2026-05-07 02:39 50.91712 72.52941 35061 ft 511 kts 122°
2026-05-07 02:39 50.88192 72.62720 35058 ft 511 kts 122°
2026-05-07 02:40 50.84666 72.72478 35059 ft 511 kts 122°
2026-05-07 02:40 50.81132 72.82221 35064 ft 511 kts 122°
2026-05-07 02:41 50.77590 72.91951 35044 ft 510 kts 123°
2026-05-07 02:41 50.74044 73.01655 35059 ft 510 kts 123°
2026-05-07 02:42 50.70494 73.11329 35063 ft 509 kts 123°
2026-05-07 02:42 50.66931 73.21004 35071 ft 510 kts 123°
2026-05-07 02:43 50.63356 73.30676 35071 ft 510 kts 123°
2026-05-07 02:43 50.59802 73.40255 35059 ft 510 kts 123°
2026-05-07 02:44 50.56216 73.49886 35069 ft 510 kts 123°
2026-05-07 02:44 50.52620 73.59507 35068 ft 511 kts 123°
2026-05-07 02:45 50.49008 73.69136 35074 ft 511 kts 123°
2026-05-07 02:45 50.45384 73.78759 35070 ft 512 kts 123°
2026-05-07 02:46 50.41750 73.88380 35075 ft 512 kts 123°
2026-05-07 02:46 50.38106 73.98003 35072 ft 513 kts 122°
2026-05-07 02:47 50.35062 74.08141 35072 ft 516 kts 113°
2026-05-07 02:47 50.32503 74.18573 35068 ft 517 kts 113°
2026-05-07 02:48 50.29904 74.29067 35074 ft 517 kts 114°
2026-05-07 02:48 50.27262 74.39532 35065 ft 517 kts 114°
2026-05-07 02:49 50.24596 74.49987 35073 ft 517 kts 114°
2026-05-07 02:49 50.21920 74.60430 35080 ft 518 kts 114°
2026-05-07 02:50 50.19236 74.70866 35077 ft 518 kts 115°
2026-05-07 02:50 50.16544 74.81288 35081 ft 518 kts 115°
2026-05-07 02:51 50.13839 74.91715 35079 ft 519 kts 115°
2026-05-07 02:51 50.11123 75.02133 35076 ft 519 kts 115°
2026-05-07 02:52 50.08398 75.12540 35095 ft 519 kts 115°
2026-05-07 02:52 50.05665 75.22930 35080 ft 519 kts 115°
2026-05-07 02:53 50.02939 75.33247 35082 ft 519 kts 115°
2026-05-07 02:53 50.00180 75.43637 35081 ft 520 kts 115°
2026-05-07 02:54 49.97411 75.54025 35097 ft 520 kts 115°
2026-05-07 02:54 49.94631 75.64407 35081 ft 520 kts 115°
2026-05-07 02:55 49.91843 75.74770 35089 ft 520 kts 115°
2026-05-07 02:55 49.89045 75.85126 35087 ft 520 kts 115°
2026-05-07 02:56 49.86243 75.95451 35088 ft 520 kts 115°
2026-05-07 02:56 49.83433 76.05764 35085 ft 519 kts 116°
2026-05-07 02:57 49.80604 76.16052 35072 ft 518 kts 117°
2026-05-07 02:57 49.77113 76.25741 35082 ft 514 kts 126°
2026-05-07 02:58 49.73252 76.35056 35088 ft 514 kts 126°
2026-05-07 02:58 49.69398 76.44389 35087 ft 516 kts 126°
2026-05-07 02:59 49.65583 76.53697 35091 ft 517 kts 125°
2026-05-07 02:59 49.61729 76.63102 35086 ft 518 kts 125°
2026-05-07 03:00 49.57871 76.72486 35099 ft 518 kts 125°
2026-05-07 03:00 49.54022 76.81807 35100 ft 519 kts 125°
2026-05-07 03:01 49.50134 76.91184 35099 ft 520 kts 125°
2026-05-07 03:01 49.46237 77.00553 35092 ft 521 kts 125°
2026-05-07 03:02 49.42321 77.09934 35104 ft 521 kts 125°
2026-05-07 03:02 49.38399 77.19296 35097 ft 522 kts 125°
2026-05-07 03:03 49.34462 77.28662 35104 ft 522 kts 125°
2026-05-07 03:03 49.30512 77.38023 35114 ft 522 kts 125°
2026-05-07 03:04 49.26559 77.47360 35097 ft 522 kts 125°
2026-05-07 03:04 49.22601 77.56678 35105 ft 522 kts 125°
2026-05-07 03:05 49.18635 77.65981 35117 ft 523 kts 125°
2026-05-07 03:05 49.15327 77.73716 35109 ft 523 kts 125°
2026-05-07 03:06 49.11338 77.83012 35108 ft 523 kts 125°
2026-05-07 03:06 49.07345 77.92288 35102 ft 523 kts 125°
2026-05-07 03:07 49.03340 78.01564 35109 ft 523 kts 125°
2026-05-07 03:07 48.99330 78.10815 35103 ft 524 kts 125°
2026-05-07 03:08 48.95296 78.20077 35101 ft 525 kts 125°
2026-05-07 03:08 48.91283 78.29265 35093 ft 525 kts 125°
2026-05-07 03:09 48.87235 78.38507 35098 ft 525 kts 125°
2026-05-07 03:09 48.83174 78.47750 35096 ft 526 kts 125°
2026-05-07 03:10 48.79109 78.56969 35101 ft 526 kts 125°
2026-05-07 03:10 48.75035 78.66176 35102 ft 526 kts 125°
2026-05-07 03:11 48.70944 78.75390 35093 ft 527 kts 125°
2026-05-07 03:11 48.66850 78.84578 35100 ft 527 kts 125°
2026-05-07 03:12 48.62744 78.93763 35098 ft 527 kts 125°
2026-05-07 03:12 48.58631 79.02933 35101 ft 527 kts 125°
2026-05-07 03:13 48.54509 79.12089 35095 ft 527 kts 125°
2026-05-07 03:13 48.50377 79.21238 35097 ft 527 kts 125°
2026-05-07 03:14 48.46266 79.30310 35103 ft 528 kts 125°
2026-05-07 03:15 48.40038 79.43998 35097 ft 528 kts 125°
2026-05-07 03:15 48.35879 79.53099 35096 ft 528 kts 125°
2026-05-07 03:16 48.31711 79.62189 35096 ft 528 kts 125°
2026-05-07 03:16 48.27531 79.71274 35105 ft 528 kts 125°
2026-05-07 03:17 48.23343 79.80349 35100 ft 529 kts 125°
2026-05-07 03:17 48.19145 79.89413 35090 ft 529 kts 125°
2026-05-07 03:18 48.14943 79.98456 35103 ft 528 kts 125°
2026-05-07 03:18 48.10764 80.07421 35100 ft 528 kts 125°
2026-05-07 03:19 48.06550 80.16430 35097 ft 528 kts 125°
2026-05-07 03:19 48.02328 80.25427 35085 ft 528 kts 125°
2026-05-07 03:20 47.98107 80.34395 35094 ft 527 kts 124°
2026-05-07 03:20 47.93889 80.43331 35095 ft 526 kts 124°
2026-05-07 03:21 47.89800 80.52374 35090 ft 525 kts 122°
2026-05-07 03:21 47.85920 80.61592 35094 ft 525 kts 121°
2026-05-07 03:22 47.82003 80.70759 35100 ft 524 kts 122°
2026-05-07 03:22 47.78047 80.79870 35089 ft 524 kts 122°
2026-05-07 03:23 47.74091 80.88965 35087 ft 524 kts 122°
2026-05-07 03:23 47.70139 80.98045 35086 ft 524 kts 122°
2026-05-07 03:24 47.66202 81.07062 35074 ft 523 kts 122°
2026-05-07 03:24 47.62237 81.16114 35088 ft 523 kts 122°
2026-05-07 03:25 47.58271 81.25139 35090 ft 522 kts 122°
2026-05-07 03:25 47.54335 81.34177 35092 ft 522 kts 121°
2026-05-07 03:26 47.50472 81.43258 35092 ft 521 kts 121°
2026-05-07 03:26 47.46606 81.52328 35089 ft 521 kts 121°
2026-05-07 03:27 47.42724 81.61368 35091 ft 521 kts 121°
2026-05-07 03:27 47.38833 81.70380 35095 ft 520 kts 121°
2026-05-07 03:28 47.34941 81.79369 35122 ft 519 kts 121°
2026-05-07 03:28 47.31046 81.88340 35174 ft 518 kts 121°
2026-05-07 03:29 47.27159 81.97264 35190 ft 517 kts 121°
2026-05-07 03:29 47.23271 82.06164 35192 ft 517 kts 121°
2026-05-07 03:30 47.19394 82.14990 35186 ft 516 kts 121°
2026-05-07 03:30 47.15492 82.23838 35200 ft 516 kts 121°
2026-05-07 03:31 47.11583 82.32682 35190 ft 515 kts 121°
2026-05-07 03:31 47.07677 82.41494 35194 ft 514 kts 121°
2026-05-07 03:32 47.03779 82.50263 35191 ft 512 kts 121°
2026-05-07 03:32 46.99885 82.58993 35196 ft 511 kts 121°
2026-05-07 03:33 46.95990 82.67695 35193 ft 511 kts 121°
2026-05-07 03:33 46.92092 82.76380 35190 ft 510 kts 121°
2026-05-07 03:34 46.88193 82.85046 35174 ft 510 kts 121°
2026-05-07 03:34 46.84319 82.93752 35180 ft 510 kts 120°
2026-05-07 03:35 46.80579 83.02550 35184 ft 510 kts 119°
2026-05-07 03:35 46.76832 83.11358 35185 ft 511 kts 120°
2026-05-07 03:36 46.73079 83.20084 35186 ft 511 kts 120°
2026-05-07 03:36 46.69293 83.28846 35175 ft 510 kts 120°
2026-05-07 03:37 46.65492 83.37556 35176 ft 510 kts 122°
2026-05-07 03:37 46.61346 83.45935 35174 ft 510 kts 124°
2026-05-07 03:38 46.57130 83.54226 35187 ft 509 kts 124°
2026-05-07 03:38 46.52938 83.62503 35172 ft 508 kts 124°
2026-05-07 03:39 46.48763 83.70769 35170 ft 507 kts 124°
2026-05-07 03:39 46.44614 83.78968 35176 ft 506 kts 124°
2026-05-07 03:40 46.40449 83.87174 35162 ft 506 kts 124°
2026-05-07 03:40 46.36277 83.95365 35181 ft 505 kts 124°
2026-05-07 03:41 46.32101 84.03542 35191 ft 505 kts 125°
2026-05-07 03:41 46.27923 84.11701 35200 ft 505 kts 125°
2026-05-07 03:42 46.23728 84.19844 35205 ft 505 kts 125°
2026-05-07 03:42 46.19510 84.27963 35195 ft 505 kts 126°
2026-05-07 03:43 46.15283 84.36079 35194 ft 506 kts 126°
2026-05-07 03:43 46.11050 84.44192 35195 ft 506 kts 126°
2026-05-07 03:44 46.06807 84.52305 35170 ft 507 kts 126°
2026-05-07 03:44 46.02554 84.60413 35188 ft 508 kts 126°
2026-05-07 03:45 45.98295 84.68509 35171 ft 508 kts 127°
2026-05-07 03:45 45.94027 84.76597 35180 ft 508 kts 127°
2026-05-07 03:46 45.89755 84.84673 35176 ft 508 kts 127°
2026-05-07 03:46 45.85470 84.92747 35172 ft 508 kts 127°
2026-05-07 03:47 45.81216 85.00742 35171 ft 507 kts 127°
2026-05-07 03:47 45.76932 85.08770 35168 ft 507 kts 127°
2026-05-07 03:48 45.72649 85.16778 35173 ft 506 kts 127°
2026-05-07 03:48 45.68358 85.24780 35169 ft 506 kts 127°
2026-05-07 03:49 45.64089 85.32767 35169 ft 506 kts 127°
2026-05-07 03:49 45.59817 85.40758 35174 ft 506 kts 127°
2026-05-07 03:50 45.55543 85.48725 35168 ft 506 kts 127°
2026-05-07 03:50 45.51261 85.56681 35172 ft 506 kts 127°
2026-05-07 03:51 45.46970 85.64631 35166 ft 505 kts 128°
2026-05-07 03:51 45.42677 85.72562 35177 ft 505 kts 128°
2026-05-07 03:52 45.38407 85.80428 35174 ft 506 kts 128°
2026-05-07 03:52 45.34098 85.88344 35170 ft 506 kts 128°
2026-05-07 03:53 45.30485 85.94965 35167 ft 505 kts 128°
2026-05-07 03:53 45.26177 86.02840 35176 ft 505 kts 128°
2026-05-07 03:54 45.21899 86.10638 35178 ft 504 kts 128°
2026-05-07 03:54 45.17588 86.18475 35170 ft 504 kts 128°
2026-05-07 03:55 45.13265 86.26311 35173 ft 504 kts 128°
2026-05-07 03:55 45.08947 86.34118 35179 ft 504 kts 128°
2026-05-07 03:56 45.04619 86.41921 35179 ft 504 kts 128°
2026-05-07 03:56 45.00282 86.49718 35174 ft 504 kts 128°
2026-05-07 03:57 44.95948 86.57491 35191 ft 504 kts 129°
2026-05-07 03:57 44.91607 86.65255 35191 ft 504 kts 129°
2026-05-07 03:58 44.87258 86.73014 35184 ft 504 kts 129°
2026-05-07 03:58 44.82906 86.80755 35191 ft 504 kts 129°
2026-05-07 03:59 44.78499 86.88423 35193 ft 503 kts 130°
2026-05-07 03:59 44.74104 86.96015 35192 ft 503 kts 130°
2026-05-07 03:59 44.71883 86.99856 34525 ft 509 kts 130°
2026-05-07 04:00 44.69669 87.03693 33719 ft 501 kts 130°
2026-05-07 04:00 44.67466 87.07509 32712 ft 503 kts 130°
2026-05-07 04:00 44.65262 87.11325 31770 ft 504 kts 129°
2026-05-07 04:00 44.63064 87.15125 30862 ft 495 kts 129°
2026-05-07 04:01 44.60906 87.18854 29662 ft 488 kts 129°
2026-05-07 04:01 44.58775 87.22533 28408 ft 486 kts 129°
2026-05-07 04:01 44.56656 87.26181 27437 ft 477 kts 129°
2026-05-07 04:01 44.54589 87.29742 26477 ft 465 kts 129°
2026-05-07 04:02 44.52623 87.33302 25390 ft 457 kts 127°
2026-05-07 04:02 44.50731 87.36857 24263 ft 453 kts 127°
2026-05-07 04:02 44.49064 87.39974 23244 ft 448 kts 127°
2026-05-07 04:02 44.47193 87.43429 22096 ft 441 kts 127°
2026-05-07 04:03 44.45352 87.46823 21043 ft 433 kts 127°
2026-05-07 04:03 44.43574 87.50113 20057 ft 427 kts 127°
2026-05-07 04:03 44.41797 87.53403 19079 ft 421 kts 127°
2026-05-07 04:03 44.40046 87.56645 18106 ft 415 kts 127°
2026-05-07 04:04 44.38311 87.59851 17070 ft 409 kts 126°
2026-05-07 04:04 44.36609 87.62992 16163 ft 401 kts 126°
2026-05-07 04:04 44.34939 87.66071 15273 ft 394 kts 126°
2026-05-07 04:04 44.33284 87.69118 14227 ft 393 kts 126°
2026-05-07 04:05 44.31635 87.72153 13217 ft 390 kts 126°
2026-05-07 04:05 44.30009 87.75140 12373 ft 382 kts 126°
2026-05-07 04:05 44.28415 87.78066 11617 ft 374 kts 127°
2026-05-07 04:05 44.26880 87.80882 11389 ft 353 kts 127°
2026-05-07 04:06 44.25435 87.83530 11255 ft 334 kts 127°
2026-05-07 04:06 44.24063 87.86042 11128 ft 317 kts 127°
2026-05-07 04:06 44.22762 87.88425 11021 ft 302 kts 127°
2026-05-07 04:06 44.21506 87.90721 10857 ft 292 kts 127°
2026-05-07 04:07 44.20291 87.92938 10628 ft 285 kts 127°
2026-05-07 04:07 44.19083 87.95103 10341 ft 280 kts 132°
2026-05-07 04:07 44.17540 87.96647 10030 ft 279 kts 161°
2026-05-07 04:07 44.15638 87.96968 9772 ft 276 kts 187°
2026-05-07 04:08 44.13821 87.96241 9468 ft 269 kts 204°
2026-05-07 04:08 44.12101 87.95165 9080 ft 266 kts 204°
2026-05-07 04:08 44.10432 87.94113 8771 ft 261 kts 204°
2026-05-07 04:08 44.08816 87.93099 8469 ft 255 kts 204°
2026-05-07 04:09 44.07216 87.92105 8187 ft 248 kts 204°
2026-05-07 04:09 44.05684 87.91159 8065 ft 234 kts 203°
2026-05-07 04:09 44.04207 87.90250 7979 ft 233 kts 203°
2026-05-07 04:09 44.02701 87.89307 7790 ft 243 kts 208°
2026-05-07 04:10 44.01460 87.87752 7522 ft 242 kts 240°
2026-05-07 04:10 44.00862 87.85572 7247 ft 243 kts 253°
2026-05-07 04:10 44.00394 87.83284 6953 ft 249 kts 252°
2026-05-07 04:10 43.99901 87.80964 6627 ft 251 kts 252°
2026-05-07 04:11 43.99409 87.78649 6307 ft 248 kts 252°
2026-05-07 04:11 43.98928 87.76375 6012 ft 242 kts 252°
2026-05-07 04:11 43.98457 87.74153 5676 ft 238 kts 252°
2026-05-07 04:11 43.97997 87.71981 5344 ft 230 kts 252°
2026-05-07 04:12 43.97559 87.69912 5065 ft 218 kts 251°
2026-05-07 04:12 43.97135 87.67916 4798 ft 213 kts 251°
2026-05-07 04:12 43.96722 87.65972 4521 ft 203 kts 251°
2026-05-07 04:12 43.96340 87.64171 4278 ft 189 kts 251°
2026-05-07 04:13 43.95978 87.62469 4039 ft 182 kts 252°
2026-05-07 04:13 43.95622 87.60795 3818 ft 181 kts 252°
2026-05-07 04:13 43.95273 87.59166 3541 ft 170 kts 252°
2026-05-07 04:13 43.94942 87.57617 3383 ft 166 kts 253°
2026-05-07 04:14 43.94612 87.56067 3154 ft 167 kts 253°
2026-05-07 04:14 43.94297 87.54530 2936 ft 165 kts 253°
2026-05-07 04:14 43.93967 87.52991 2733 ft 166 kts 253°
2026-05-07 04:14 43.93647 87.51468 2506 ft 166 kts 253°
2026-05-07 04:15 43.93317 87.49938 2269 ft 165 kts 253°
2026-05-07 04:15 43.92996 87.48438 2148 ft 156 kts 253°
2026-05-07 04:15 43.92720 87.47141 2140 ft 117 kts 253°
2026-05-07 04:15 43.92542 87.46305 2142 ft 64 kts 254°
2026-05-07 04:16 43.92453 87.45885 2143 ft 40 kts 253°
2026-05-07 04:16 43.92387 87.45572 2139 ft 18 kts 253°
2026-05-07 04:16 43.92292 87.45499 2140 ft 18 kts 168°
2026-05-07 04:16 43.92178 87.45542 2140 ft 13 kts 165°
2026-05-07 04:17 43.92092 87.45573 2139 ft 13 kts 165°
2026-05-07 04:17 43.92006 87.45605 2138 ft 13 kts 165°
2026-05-07 04:17 43.91911 87.45644 2140 ft 21 kts 162°
2026-05-07 04:17 43.91766 87.45707 2140 ft 19 kts 161°
2026-05-07 04:18 43.91738 87.45857 2140 ft 19 kts 74°
2026-05-07 04:18 43.91776 87.46034 2140 ft 21 kts 73°
2026-05-07 04:18 43.91819 87.46244 2140 ft 23 kts 74°
2026-05-07 04:18 43.91865 87.46460 2140 ft 23 kts 73°
2026-05-07 04:19 43.91911 87.46675 2140 ft 23 kts 73°
2026-05-07 04:19 43.91956 87.46891 2140 ft 23 kts 73°
2026-05-07 04:19 43.92004 87.47105 2138 ft 23 kts 73°
2026-05-07 04:19 43.92048 87.47321 2140 ft 23 kts 75°
2026-05-07 04:20 43.92095 87.47557 2140 ft 28 kts 73°
2026-05-07 04:20 43.92152 87.47814 2140 ft 28 kts 73°
2026-05-07 04:20 43.92208 87.48072 2140 ft 28 kts 73°
2026-05-07 04:21 43.92312 87.48570 2140 ft 22 kts 73°
2026-05-07 04:21 43.92306 87.48719 2140 ft 17 kts 139°
2026-05-07 04:21 43.92197 87.48763 2140 ft 17 kts 149°
2026-05-07 04:21 43.92093 87.48831 2140 ft 17 kts 157°
2026-05-07 04:22 43.91981 87.48867 2140 ft 17 kts 167°
2026-05-07 04:22 43.91870 87.48910 2140 ft 17 kts 163°
2026-05-07 04:22 43.91722 87.48972 2140 ft 26 kts 163°
2026-05-07 04:22 43.91551 87.49043 2140 ft 26 kts 163°
2026-05-07 04:23 43.91394 87.49109 2140 ft 19 kts 163°
2026-05-07 04:23 43.91288 87.49213 2140 ft 19 kts 137°
2026-05-07 04:23 43.91185 87.49325 2139 ft 19 kts 144°
2026-05-07 04:23 43.91071 87.49413 2140 ft 19 kts 163°
2026-05-07 04:24 43.90944 87.49460 2140 ft 19 kts 168°
2026-05-07 04:24 43.90841 87.49545 2140 ft 19 kts 102°
2026-05-07 04:24 43.90861 87.49724 2140 ft 19 kts 95°
2026-05-07 04:24 43.90847 87.49899 2140 ft 19 kts 75°
2026-05-07 04:25 43.90879 87.50052 2140 ft 11 kts 77°
2026-05-07 04:25 43.90842 87.50112 2139 ft 7 kts 165°
2026-05-07 04:25 43.90816 87.50122 2139 ft 2 kts 164°
2026-05-07 04:25 43.90811 87.50124 2139 ft 0 kts 164°
2026-05-07 04:33 43.98600 87.74831 5783 ft 239 kts 252°
2026-05-07 04:33 43.94095 87.53591 2796 ft 166 kts 253°
2026-05-07 04:33 43.93772 87.52055 2585 ft 166 kts 253°
2026-05-07 04:33 43.93442 87.50519 2356 ft 166 kts 253°
2026-05-07 04:34 43.93116 87.49001 2165 ft 162 kts 253°
2026-05-07 04:34 43.92814 87.47588 2139 ft 137 kts 254°
2026-05-07 04:34 43.92595 87.46565 2141 ft 84 kts 253°
2026-05-07 04:34 43.93775 87.52069 2589 ft 166 kts 253°
2026-05-07 04:35 43.93449 87.50552 2362 ft 166 kts 253°
2026-05-07 04:35 43.93123 87.49034 2163 ft 163 kts 253°
2026-05-07 04:35 43.92820 87.47616 2138 ft 138 kts 254°
2026-05-07 04:35 43.94252 87.54321 2917 ft 165 kts 253°
2026-05-07 04:36 43.93923 87.52785 2695 ft 166 kts 253°
2026-05-07 04:36 43.93599 87.51246 2475 ft 166 kts 253°
2026-05-07 04:36 43.93269 87.49714 2240 ft 164 kts 253°
2026-05-07 04:36 43.92950 87.48224 2139 ft 153 kts 253°
2026-05-07 04:37 43.92687 87.46987 2142 ft 109 kts 253°
2026-05-07 04:37 43.92526 87.46229 2142 ft 56 kts 254°
2026-05-07 04:37 43.98417 87.73966 5640 ft 238 kts 252°
2026-05-07 04:37 43.97965 87.71828 5325 ft 229 kts 252°
2026-05-07 04:38 43.97528 87.69765 5043 ft 218 kts 251°
2026-05-07 04:38 43.97097 87.67742 4792 ft 237 kts 251°
2026-05-07 04:38 43.96550 87.65257 4921 ft 297 kts 251°
2026-05-07 04:38 43.95917 87.62402 5218 ft 309 kts 251°
2026-05-07 04:39 43.95314 87.59528 4865 ft 319 kts 253°
2026-05-07 04:39 43.94665 87.56450 4115 ft 327 kts 252°
2026-05-07 04:39 43.94060 87.53579 3240 ft 297 kts 254°
2026-05-07 04:39 43.93515 87.50921 2440 ft 272 kts 254°
2026-05-07 04:40 43.93022 87.48551 2144 ft 236 kts 253°
2026-05-07 04:40 43.92725 87.47166 2142 ft 48 kts 254°